Weather History for KAFF - September, 2012

Change the Weather History Date:

Sunday, September 9, 2012

  Actual Average Record
Temperature  
Mean Temperature 60 °F -  
Max Temperature 79 °F 73 °F 84 °F (1998)
Min Temperature 40 °F 46 °F 39 °F (1999)
Degree Days  
Heating Degree Days 6    
Growing Degree Days 10 (Base 50)    
Moisture  
Dew Point 28 °F    
Average Humidity 34    
Maximum Humidity 69    
Minimum Humidity 13    
Precipitation  
Precipitation 0.00 in - - ()
Sea Level Pressure  
Sea Level Pressure 30.07 in    
Wind  
Wind Speed 10 mph (ESE)    
Max Wind Speed 21 mph    
Max Gust Speed 31 mph    
Visibility 10 miles    
Events      
Averages and records for this station are not official NWS values.
T = Trace of Precipitation, MM = Missing Value Source: NWS Daily Summary

Daily Weather History Graph

Daily Weather History Graph

Search for Another Location

Airport or City:

Trip Planner

Search our weather history database for the weather conditions in past years. The results will help you decide how hot, cold, wet, or windy it might be!

Date:

Astronomy

Sep. 09, 2012 Rise Set
Actual Time 6:35 AM MDT 7:16 PM MDT
Civil Twilight 6:08 AM MDT 7:43 PM MDT
Nautical Twilight 5:36 AM MDT 8:14 PM MDT
Astronomical Twilight 5:04 AM MDT 8:47 PM MDT
Moon 12:09 AM MDT (9/9) 3:01 PM MDT (9/9)
Length of Visible Light 13h 34m
Length of Day
12h 40m
Last Quarter, 39% of the Moon is Illuminated
Sep 9
Last Quarter
Sep 15
New
Sep 22
First Quarter
Sep 29
Full
Oct 8
Last Quarter

Hourly Weather History & Observations

Time (MDT) Temp. Windchill Dew Point Humidity Pressure Visibility Wind Dir Wind Speed Gust Speed Precip Events Conditions
12:55 AM 46.6 °F - 27.5 °F 47% 30.17 in 10.0 mi North 9.2 mph - N/A   Clear
1:55 AM 44.6 °F 39.7 °F 29.1 °F 55% 30.15 in 10.0 mi North 9.2 mph - N/A   Clear
2:55 AM 43.3 °F 38.1 °F 29.1 °F 57% 30.14 in 10.0 mi North 9.2 mph - N/A   Clear
3:55 AM 44.6 °F 42.2 °F 30.0 °F 57% 30.13 in 10.0 mi North 4.6 mph - N/A   Clear
4:55 AM 42.6 °F 37.8 °F 30.6 °F 62% 30.14 in 10.0 mi North 8.1 mph - N/A   Clear
5:55 AM 41.7 °F 35.6 °F 30.6 °F 65% 30.14 in 10.0 mi North 10.4 mph - N/A   Clear
6:55 AM 40.8 °F 35.6 °F 31.3 °F 69% 30.15 in 10.0 mi North 8.1 mph - N/A   Clear
7:55 AM 48.2 °F - 32.5 °F 55% 30.16 in 10.0 mi North 4.6 mph - N/A   Clear
8:55 AM 61.5 °F - 33.4 °F 35% 30.15 in 10.0 mi South 3.5 mph - N/A   Clear
9:55 AM 67.3 °F - 34.3 °F 30% 30.14 in 10.0 mi South 8.1 mph - N/A   Clear
10:55 AM 70.9 °F - 34.9 °F 27% 30.13 in 10.0 mi SSE 15.0 mph 20.7 mph N/A   Clear
11:55 AM 74.3 °F - 33.4 °F 22% 30.09 in 10.0 mi SSE 16.1 mph 20.7 mph N/A   Clear
12:55 PM 76.1 °F - 31.5 °F 20% 30.07 in 10.0 mi SSE 16.1 mph - N/A   Clear
1:55 PM 77.7 °F - 30.0 °F 17% 30.05 in 10.0 mi SSE 19.6 mph - N/A   Clear
2:55 PM 79.0 °F - 27.3 °F 15% 30.01 in 10.0 mi SSE 19.6 mph 26.5 mph N/A   Clear
3:55 PM 78.4 °F - 27.3 °F 15% 29.99 in 10.0 mi SSE 17.3 mph 31.1 mph N/A   Clear
4:55 PM 77.9 °F - 25.9 °F 15% 29.98 in 10.0 mi SE 18.4 mph 24.2 mph N/A   Clear
5:55 PM 75.6 °F - 21.9 °F 13% 29.98 in 10.0 mi SE 20.7 mph 28.8 mph N/A   Clear
6:55 PM 72.1 °F - 19.4 °F 14% 29.99 in 10.0 mi SSE 18.4 mph 24.2 mph N/A   Clear
7:55 PM 67.3 °F - 20.5 °F 17% 29.99 in 10.0 mi SSE 8.1 mph - N/A   Clear
8:55 PM 63.9 °F - 22.5 °F 21% 29.99 in 10.0 mi SE 10.4 mph - N/A   Clear
9:55 PM 62.8 °F - 23.2 °F 22% 29.98 in 10.0 mi ESE 9.2 mph - N/A   Clear
10:55 PM 59.0 °F - 23.7 °F 26% 29.97 in 10.0 mi Calm Calm - N/A   Clear
11:55 PM 50.0 °F - 23.2 °F 35% 29.97 in 10.0 mi North 8.1 mph - N/A   Clear